Theta_e
331 330 330 331 330 330 328 327 327 326 325 322 320 319 318 318 317 315 314 315 316 313 313 312 315 313 313 314 313 313 311 308 304 308 309 311 310 312 318 317 319 315 317
328 328 328 328 328 326 326 326 326 323 322 322 323 320 321 321 319 319 316 315 313 310 308 306 308 309 306 307 306 305 305 306 307 304 308 310 310 312 313 314 317 318 312
332 326 326 325 323 323 323 323 321 321 319 315 314 312 312 317 317 319 318 314 311 308 307 305 305 304 302 303 302 302 303 304 301 301 304 308 309 308 304 304 305 305 310
328 326 321 320 320 320 320 319 316 316 312 311 311 308 307 308 313 313 315 311 310 309 308 307 306 304 302 302 304 302 301 300 300 300 300 300 300 302 301 300 301 301 302
324 323 323 323 322 319 318 316 313 311 311 310 309 308 306 308 310 310 310 309 309 310 306 304 303 308 312 311 303 300 301 299 299 298 297 297 298 298 298 299 298 298 300
325 324 321 319 317 316 315 314 313 311 309 309 308 306 302 305 305 310 310 307 306 305 304 301 301 304 304 308 310 309 306 300 299 299 298 297 298 298 300 299 298 297 295
319 318 317 316 315 315 315 313 310 309 308 306 304 302 298 299 302 304 309 305 305 303 301 300 301 302 302 304 308 309 308 309 309 300 297 298 297 298 298 297 297 296 296
317 316 316 313 315 315 315 314 313 309 305 306 304 305 299 300 302 302 307 303 303 305 303 301 298 298 299 302 302 302 303 303 306 306 302 301 300 300 299 299 299 299 300
314 316 318 317 315 315 316 316 313 310 309 306 305 304 301 298 300 301 306 304 303 301 301 302 300 297 300 300 300 300 299 301 307 308 307 305 304 304 303 300 298 297 299
318 318 319 319 319 317 315 314 312 311 308 309 305 303 306 299 299 299 303 308 301 300 298 297 303 298 299 299 296 297 296 300 301 304 303 304 304 305 306 301 300 297 301
316 317 318 319 317 315 314 311 310 307 307 306 306 305 305 301 298 299 300 299 301 302 302 300 300 299 298 298 298 296 298 299 304 305 305 304 302 302 303 304 303 300 301
317 318 316 315 316 314 310 309 307 306 305 304 306 306 306 305 302 299 299 299 301 300 301 302 300 299 299 299 298 299 298 301 305 303 299 299 300 300 302 303 303 303 306
314 313 316 316 316 313 310 308 308 309 307 307 307 307 308 306 301 300 300 299 302 299 300 302 302 299 300 301 299 299 299 304 302 298 298 298 300 301 302 302 303 304 305
311 315 315 311 310 311 311 309 308 307 308 307 307 305 305 300 299 300 301 301 301 299 298 299 305 302 300 303 302 303 300 304 303 299 299 299 300 301 300 301 300 300 299
313 314 310 312 310 306 302 303 302 297 300 299 299 299 300 298 298 296 295 296 294 295 297 304 301 298 300 300 302 303 300 300 301 300 299 299 298 298 299 305 300 298 296
313 312 310 312 309 305 301 296 295 296 296 295 295 299 297 297 295 295 295 295 294 294 300 301 297 296 300 300 301 301 299 300 300 302 299 299 299 298 298 302 301 297 295
311 310 305 307 309 308 305 302 297 296 296 295 294 295 296 295 295 295 296 296 297 299 302 300 296 297 300 300 301 301 300 301 301 300 299 299 299 299 299 298 299 297 296
312 306 305 308 306 304 306 307 307 300 298 298 296 296 295 294 295 296 295 298 301 301 297 296 295 300 301 301 301 300 301 302 302 301 298 299 299 299 301 298 301 300 295
307 306 311 307 304 303 305 305 305 304 304 303 298 296 297 295 295 295 295 298 297 295 296 296 298 301 301 301 298 300 300 300 298 299 301 300 301 301 299 301 300 296 294
309 306 304 307 305 304 305 305 306 305 304 301 297 295 297 297 296 297 299 300 297 296 296 297 301 301 300 300 299 300 300 297 296 296 296 298 301 303 303 303 304 303 296
307 306 303 304 306 306 308 307 301 301 299 296 295 295 289 295 297 297 296 297 297 297 297 299 301 298 297 297 297 297 295 294 294 294 295 296 298 300 303 304 305 305 302
311 306 303 306 308 306 301 300 299 298 299 297 296 296 288 294 297 297 297 298 298 298 298 298 298 297 297 296 296 294 292 290 290 291 292 294 297 300 302 303 304 304 301
311 310 309 303 299 298 298 299 296 297 298 298 298 298 297 297 298 298 299 299 299 299 299 299 298 297 298 296 293 290 288 288 287 289 291 291 295 297 300 300 302 302 300
305 306 304 301 301 299 299 296 293 293 297 298 299 299 298 299 298 299 299 299 299 299 299 298 298 297 294 293 292 290 287 286 285 289 289 291 295 295 299 300 299 300 301
304 304 304 302 300 299 298 298 295 295 298 299 299 299 298 299 299 299 299 299 299 298 298 297 296 294 292 291 290 290 286 284 285 285 287 289 293 294 298 298 300 301 302
305 307 305 302 300 301 299 298 299 299 298 299 299 298 298 298 298 298 298 298 297 297 298 295 294 293 292 291 290 286 285 285 285 285 287 292 295 296 297 295 296 296 297
Wind_Speed
10 10 10 9 8 9 10 10 9 9 8 7 7 7 7 6 6 6 6 6 9 10 9 9 9 7 5 4 4 3 3 1 1 3 3 3 2 4 5 4 6 6 6
9 10 8 9 9 10 9 7 8 8 6 6 6 6 5 5 5 8 9 6 9 10 8 8 8 6 7 7 5 6 5 5 1 3 2 2 2 3 4 5 5 4 4
9 8 9 9 9 9 10 9 7 8 11 12 12 11 10 7 7 7 6 9 9 7 7 7 7 7 7 5 6 6 5 4 4 5 7 7 5 5 4 4 5 5 4
8 9 7 6 7 6 7 7 8 9 10 10 10 10 9 8 8 8 7 6 7 7 7 8 7 7 7 6 6 6 5 5 5 5 4 4 3 3 3 4 7 4 5
9 10 9 8 9 8 8 9 9 9 9 10 11 10 9 10 6 7 9 10 7 6 6 6 7 11 14 8 3 5 6 5 5 4 3 3 4 4 5 4 3 3 4
7 8 8 10 11 9 9 9 10 10 9 9 9 8 8 7 12 12 9 6 7 6 5 5 6 11 10 10 6 7 6 5 5 3 3 3 4 3 3 3 3 4 4
10 9 8 9 9 8 9 10 9 6 6 7 7 7 8 7 11 10 8 6 6 6 6 5 5 5 7 7 10 5 6 9 6 3 2 2 3 2 3 4 3 2 3
10 9 7 6 8 7 7 7 6 5 6 4 6 5 6 5 8 7 5 4 6 5 4 4 5 6 7 7 7 7 6 6 6 3 2 4 3 4 1 2 3 5 5
6 7 6 7 6 6 4 5 5 5 5 4 4 5 5 3 5 8 7 4 4 4 3 3 5 6 8 12 7 7 7 6 6 9 9 7 3 4 2 2 4 4 4
7 7 6 6 5 5 6 6 4 5 5 5 4 4 4 2 6 8 8 4 3 3 1 2 2 5 5 6 5 5 6 5 6 6 6 5 5 6 5 2 2 3 3
6 6 5 5 6 6 5 4 3 4 5 4 4 2 0 2 5 9 7 5 3 3 4 3 3 2 2 5 2 1 3 6 6 4 4 4 5 5 4 4 3 2 2
6 6 6 6 6 5 6 3 3 3 3 3 4 3 2 1 2 4 6 7 3 3 1 3 5 2 3 4 4 7 8 7 4 4 4 3 3 4 4 5 5 3 3
6 5 7 7 6 5 5 4 0 2 3 3 3 4 3 0 2 5 5 6 8 4 4 6 10 10 5 3 3 4 6 4 3 4 4 3 3 4 5 5 5 5 3
4 5 7 6 6 5 5 4 4 2 3 3 3 2 3 2 2 3 3 4 7 5 8 6 7 6 4 1 1 0 2 3 3 2 3 4 4 4 4 3 3 4 3
4 4 6 6 7 6 5 3 3 2 2 4 2 3 4 0 2 2 2 4 2 4 5 2 4 4 4 4 4 3 4 5 5 4 3 4 4 4 4 3 3 3 3
5 4 4 5 5 5 5 3 7 5 6 8 5 5 2 2 2 2 1 1 1 5 3 3 3 3 4 3 3 3 4 5 4 4 3 3 3 4 4 4 2 2 3
5 3 4 4 3 5 4 4 4 1 5 4 2 7 8 3 3 2 1 4 5 4 3 2 2 3 3 2 3 3 3 3 3 3 3 4 4 3 4 4 4 2 3
6 7 4 4 5 4 4 4 4 4 3 2 3 1 2 1 1 2 6 4 3 3 2 1 2 4 2 3 3 3 4 4 3 3 4 4 5 3 3 4 4 2 2
5 2 4 4 3 4 2 3 4 5 4 4 2 2 5 5 3 4 4 0 2 1 2 3 3 2 3 3 2 3 4 4 4 5 6 5 5 3 5 6 4 5 2
4 7 6 3 2 2 3 4 4 1 6 5 3 2 1 3 2 2 2 2 2 2 3 4 3 3 4 4 3 3 4 5 5 4 5 5 6 5 6 6 6 4 2
4 4 5 2 3 5 4 2 2 5 5 4 3 3 5 3 3 4 3 2 2 2 3 4 4 4 4 3 4 4 4 4 5 5 5 5 6 7 7 6 6 5 3
4 5 5 4 2 4 3 2 3 5 5 5 3 2 4 0 2 3 3 3 2 2 2 4 4 4 2 3 5 5 4 4 5 5 5 5 6 7 7 7 5 4 3
2 2 4 4 4 3 2 4 4 3 5 5 4 3 2 2 3 3 3 1 3 3 3 4 4 4 5 5 5 4 4 3 4 4 5 5 6 5 7 6 5 4 3
3 3 7 5 4 2 1 3 3 4 4 5 5 3 3 3 3 2 3 3 3 2 4 4 4 7 5 5 4 4 3 3 4 4 5 5 6 8 7 7 5 3 3
4 3 6 6 5 4 4 4 4 3 5 5 4 3 3 3 4 3 3 2 3 4 5 4 5 7 8 7 5 5 5 5 5 5 4 5 6 8 6 5 4 3 3
4 4 6 5 5 5 5 4 6 6 6 5 5 4 4 4 4 4 3 4 3 2 6 4 7 9 8 5 5 4 5 6 7 7 4 3 5 5 5 6 6 3 5
Wind_Direction
70 66 63 62 56 68 84 87 85 84 74 77 78 75 73 73 74 79 79 66 62 49 38 38 39 22 11 7 11 25 4 90 159 297 217 227 211 237 250 255 240 242 257
93 92 80 73 68 69 61 51 76 82 78 81 83 83 80 78 67 74 83 63 76 63 54 43 36 26 32 22 31 20 13 347 24 313 278 14 251 293 327 315 322 333 330
92 86 81 75 74 76 81 75 66 60 58 58 61 56 41 35 48 81 88 92 84 76 65 50 26 28 28 21 29 30 14 16 2 46 49 41 47 36 6 14 1 0 357
93 92 84 86 89 80 69 67 67 71 69 64 62 57 46 44 47 56 64 71 81 72 62 50 29 32 31 20 28 24 22 35 23 40 32 24 12 346 49 21 352 345 337
104 99 91 90 82 64 59 65 61 61 61 60 62 49 40 49 39 56 60 63 81 65 63 60 38 37 32 38 54 12 29 32 28 33 27 16 2 2 11 323 342 305 304
102 95 90 86 83 78 73 71 71 62 58 63 63 61 47 45 28 56 76 78 84 83 70 53 48 29 4 5 19 37 43 41 36 39 13 15 339 347 334 321 329 347 337
90 91 97 101 96 93 89 86 82 78 78 78 73 50 47 38 27 32 44 73 73 73 68 50 45 29 20 22 26 2 346 360 72 111 27 311 340 312 332 335 339 308 274
99 102 92 82 95 90 92 104 110 105 102 98 81 78 56 26 11 25 57 62 80 75 78 69 56 37 23 22 22 35 30 10 6 8 354 287 264 299 27 270 283 296 291
107 116 111 106 101 98 101 114 118 117 97 85 103 95 84 12 5 35 123 110 96 89 61 66 66 48 22 25 27 7 1 350 349 348 348 341 331 312 236 10 344 355 329
133 125 121 130 131 136 137 133 133 126 130 121 127 113 124 82 20 60 71 110 134 142 53 352 29 96 47 37 36 9 3 335 335 347 351 6 13 340 296 242 277 338 316
121 122 121 116 112 101 88 94 142 135 141 154 151 183 119 43 27 35 79 97 90 205 244 285 251 179 9 338 25 342 279 300 328 1 3 8 349 340 340 318 307 200 285
141 138 132 131 134 139 146 194 158 128 116 176 161 203 228 233 61 21 47 73 87 81 312 327 314 290 236 294 330 313 330 335 350 6 11 337 330 330 319 327 324 302 265
126 146 153 158 146 147 144 156 100 265 148 202 163 189 187 190 26 336 345 29 8 44 344 319 329 332 26 115 205 292 340 353 13 5 341 311 297 299 321 334 332 337 359
106 112 119 114 95 100 78 94 106 94 108 93 107 135 157 95 39 358 11 30 18 23 349 326 333 1 95 184 326 346 353 28 10 336 339 314 330 341 340 321 329 333 358
158 148 131 127 119 97 65 64 123 60 112 122 121 116 120 214 267 261 10 32 5 306 303 359 26 16 17 9 36 31 23 20 2 349 3 348 343 340 327 321 342 349 25
158 169 161 142 141 136 133 96 25 86 62 64 63 129 42 93 319 340 17 329 293 350 51 52 23 8 0 26 53 19 3 9 342 347 351 338 324 332 332 324 347 5 356
162 169 111 116 156 150 152 154 160 314 81 73 84 92 91 127 82 78 347 333 331 43 50 57 22 315 327 37 54 24 0 336 332 341 340 333 329 314 340 322 330 7 338
158 166 118 140 147 128 158 197 156 175 175 172 264 150 97 98 108 51 357 5 29 35 50 14 298 302 62 78 47 22 360 351 353 358 344 347 352 340 327 334 330 345 313
132 147 126 138 143 163 186 148 187 210 176 141 137 302 221 224 275 320 357 323 133 356 299 299 261 68 106 89 47 24 7 4 1 1 356 353 340 340 332 331 311 322 263
161 135 127 154 185 218 209 219 234 208 111 128 153 227 4 138 222 241 248 253 156 218 287 295 303 129 96 73 36 25 39 29 11 2 348 342 337 326 328 324 328 325 244
162 156 169 229 203 222 253 171 138 114 125 143 137 158 159 125 145 146 131 119 143 228 291 318 72 112 88 69 31 52 61 33 9 348 337 330 330 326 328 328 334 331 340
184 188 196 209 155 120 112 113 88 114 143 141 170 203 164 321 183 146 157 172 221 175 89 67 66 78 72 49 64 71 48 22 350 335 323 326 323 323 328 325 316 316 339
168 235 106 121 115 144 88 47 76 100 128 160 185 198 202 162 111 122 142 147 123 99 75 80 84 62 60 74 80 79 56 358 314 309 317 319 310 310 322 312 313 323 350
279 285 137 140 122 133 176 152 123 131 127 120 117 109 127 144 148 149 145 121 103 118 95 91 82 93 79 63 62 63 34 341 310 299 318 299 308 317 320 320 314 311 336
247 238 139 148 166 167 171 161 176 181 136 137 149 171 204 167 146 154 140 140 122 103 119 115 100 104 93 75 51 26 350 318 305 290 291 287 283 300 312 307 320 328 328
245 205 155 160 169 180 200 184 175 162 160 167 177 181 174 159 163 150 136 104 114 140 134 112 115 116 99 76 42 12 343 327 320 299 280 280 295 314 311 320 352 4 324